Regional Weather Roundup
Issued by NWS Sioux Falls, SD

Home | Current Version | Previous Version | Text Only | Print | Product List | Glossary On
Versions: 1 2 3 4 5 6 7 8 9 10 11 12 13 14 15 16 17 18 19 20 21 22 23 24 25 26 27 28 29 30 31 32 33 34 35 36 37 38 39 40 41 42 43 44 45 46 47 48 49 50
000
ASUS43 KFSD 011410
RWRFSD

WEATHER ROUNDUP FOR SE SOUTH DAKOTA/SW MINNESOTA/NW IOWA
NATIONAL WEATHER SERVICE SIOUX FALLS SD
900 AM CDT TUE SEP 01 2015

NOTE: "FAIR" INDICATES FEW OR NO CLOUDS BELOW 12,000 FEET WITH NO
SIGNIFICANT WEATHER AND OR OBSTRUCTIONS TO VISIBILITY.


SDZ038>040-050-052>070-011500-
SOUTHEAST SOUTH DAKOTA

CITY           SKY/WX    TMP DP  RH WIND       PRES   REMARKS
BROOKINGS      CLOUDY    72  66  83 E7        29.93R
CHAMBERLAIN    PTSUNNY   65  64  97 E5        29.89F
HURON          PTSUNNY   67  65  93 E3        29.86S FOG
MADISON        FAIR      68  68 100 E6        29.91R
MITCHELL       CLOUDY    68  66  93 S8        29.88S
SIOUX FALLS    CLOUDY    72  67  84 CALM      29.90R
WINNER         LGT RAIN  69  65  86 SW7       29.92R
YANKTON        CLOUDY    68  66  94 E3        29.87R
$$

MNZ071-072-080-081-089-090-097-098-011500-
SOUTHWEST MINNESOTA

CITY           SKY/WX    TMP DP  RH WIND       PRES   REMARKS
FAIRMONT       PTSUNNY   70  63  78 S7        29.93F
JACKSON        MOSUNNY   72  68  88 S5        29.94F
LUVERNE        PTSUNNY   72  68  88 S5        29.92R
MARSHALL       CLOUDY    70  64  83 CALM      29.92S
MONTEVIDEO     CLOUDY    70  70 100 SE5       29.91F FOG
PIPESTONE      CLOUDY    70  66  88 S3        29.92S FOG
REDWOOD FALLS  CLOUDY    70  66  87 SE3       29.90S
TRACY          CLOUDY    70  68  92 N3        29.92R
WINDOM         PTSUNNY   72  66  83 CALM      29.92F
WORTHINGTON    MOSUNNY   70  64  83 S8        29.93S
$$

IAZ001>003-012>014-020>022-031-032-NEZ013-014-SDZ071-011500-
NORTHWEST IOWA

CITY           SKY/WX    TMP DP  RH WIND       PRES   REMARKS
CHEROKEE       SUNNY     71  70  98 S7        29.92S
DENISON        SUNNY     72  68  88 S10       29.93S
ESTHERVILLE    MOSUNNY   68  66  93 S6        29.93F FOG
LE MARS        SUNNY     73  68  83 S10       29.91S
ORANGE CITY    SUNNY     72  68  88 S7        29.91S
SHELDON        SUNNY     70  68  94 SE6       29.91S
SIOUX CITY     MOSUNNY   71  65  81 SE8       29.89F
SPENCER        SUNNY     71  66  84 S5        29.94R
STORM LAKE     SUNNY     72  70  94 S9        29.94S
$$

ABBREVIATIONS USED IN REMARKS
   TC - TEMPERATURE IN CELSIUS
  WCI - WIND CHILL INDEX
   HX - HEAT INDEX
  VSB - VISIBILITY



USA.gov is the U.S. government's official web portal to all federal, state and local government web resources and services.